MSC Lara — HPUD — position and weather

sailwx.info

Track history (hours):
 
Tides and Currents Weather Stations Pressure Air Temp Water Temp Dewpoint Dewpoint Depression Visibility Wind Speed Wind Dir Waves Ship Positions

MSC Lara

Last reported at 2014-Oct-21 14:26 UTC. Time now 2014-Oct-22 23:59 UTC.
Position S 20°07' E 057°26'.

Type: Ship (hazmat cat D). MMSI: 355746000.

Date/timePositionNaut miles runAvg speedWind from/ knotsBaromVisibWave heightAir tempDewpointWater temp
2014-Oct-21 14:26S 20°07' E 057°26'4 4.2
2014-Oct-21 13:32S 20°09' E 057°29'0 0.0
2014-Oct-21 12:32S 20°09' E 057°29'0 0.0
2014-Oct-21 11:31S 20°09' E 057°29'0 0.0
2014-Oct-21 10:31S 20°09' E 057°29'0 0.0
2014-Oct-21 09:31S 20°09' E 057°29'0 0.0
2014-Oct-21 08:31S 20°09' E 057°29'0 0.0
2014-Oct-21 07:31S 20°09' E 057°29'0 0.0
2014-Oct-21 06:28S 20°09' E 057°29'0 0.0
2014-Oct-21 05:31S 20°09' E 057°29'0 0.0
2014-Oct-21 04:31S 20°09' E 057°29'0 0.0
2014-Oct-21 03:28S 20°09' E 057°29'0 0.0
2014-Oct-21 02:31S 20°09' E 057°29'0 0.0
2014-Oct-21 01:31S 20°09' E 057°29'0 0.0
2014-Oct-21 00:31S 20°09' E 057°29'0 0.0
2014-Oct-20 23:31S 20°09' E 057°29'0 0.0
2014-Oct-20 22:28S 20°09' E 057°29'0 0.0
2014-Oct-20 21:31S 20°09' E 057°29'0 0.0
2014-Oct-20 20:31S 20°09' E 057°29'0 0.0
2014-Oct-20 19:31S 20°09' E 057°29'0 0.0
2014-Oct-20 18:31S 20°09' E 057°29'0 0.0
2014-Oct-20 17:31S 20°09' E 057°29'0 0.0
2014-Oct-20 16:28S 20°09' E 057°29'0 0.0
2014-Oct-20 15:31S 20°09' E 057°29'0 0.0
2014-Oct-20 14:31S 20°09' E 057°29'0 0.0
2014-Oct-20 13:28S 20°09' E 057°29'0 0.0
2014-Oct-20 12:31S 20°09' E 057°29'0 0.0
2014-Oct-20 11:31S 20°09' E 057°29'0 0.0
2014-Oct-20 10:31S 20°09' E 057°29'0 0.0
2014-Oct-20 09:31S 20°09' E 057°29'0 0.3
2014-Oct-20 08:33S 20°08' E 057°29'3 3.2
2014-Oct-20 07:33S 20°07' E 057°26'2 2.1
2014-Oct-20 06:33S 20°07' E 057°24'3 1.4
2014-Oct-20 04:25S 20°07' E 057°20'1 0.9
2014-Oct-20 03:32S 20°07' E 057°21'1 0.8
2014-Oct-20 02:33S 20°07' E 057°22'3 2.6
2014-Oct-20 01:33S 20°08' E 057°19'  
2014-Oct-15 20:17S 20°07' E 057°26'3 4.4
2014-Oct-15 19:31S 20°08' E 057°30'0 0.0
2014-Oct-15 18:31S 20°08' E 057°30'0 0.0
2014-Oct-15 17:28S 20°08' E 057°30'0 0.0
2014-Oct-15 16:31S 20°08' E 057°30'0 0.0
2014-Oct-15 15:31S 20°08' E 057°30'0 0.0
2014-Oct-15 14:31S 20°08' E 057°30'0 0.0
2014-Oct-15 13:31S 20°08' E 057°30'0 0.0
2014-Oct-15 12:31S 20°08' E 057°30'0 0.0
2014-Oct-15 11:31S 20°08' E 057°30'0 0.0
2014-Oct-15 10:31S 20°08' E 057°30'0 0.0
2014-Oct-15 09:31S 20°08' E 057°30'0 0.0
2014-Oct-15 08:31S 20°08' E 057°30'0 0.0
2014-Oct-15 07:31S 20°08' E 057°30'0 0.0
2014-Oct-15 06:31S 20°08' E 057°30'0 0.0
2014-Oct-15 05:31S 20°08' E 057°30'0 0.0
2014-Oct-15 04:31S 20°08' E 057°30'0 0.0
2014-Oct-15 03:31S 20°08' E 057°30'0 0.0
2014-Oct-15 02:31S 20°08' E 057°30'0 0.0
2014-Oct-15 01:31S 20°08' E 057°30'0 0.0
2014-Oct-15 00:31S 20°08' E 057°30'0 0.0
2014-Oct-14 23:28S 20°08' E 057°30'0 0.0
2014-Oct-14 22:31S 20°08' E 057°30'0 0.0
2014-Oct-14 21:31S 20°08' E 057°30'0 0.0
2014-Oct-14 20:31S 20°08' E 057°30'0 0.0
2014-Oct-14 19:31S 20°08' E 057°30'0 0.0
2014-Oct-14 18:31S 20°08' E 057°30'0 0.0
2014-Oct-14 17:31S 20°08' E 057°30'0 0.0
2014-Oct-14 16:31S 20°08' E 057°30'0 0.0
2014-Oct-14 15:31S 20°08' E 057°30'0 0.0
2014-Oct-14 14:31S 20°08' E 057°30'0 0.0
2014-Oct-14 13:34S 20°08' E 057°30'0 0.0
2014-Oct-14 12:33S 20°08' E 057°30'0 0.0
2014-Oct-14 11:33S 20°08' E 057°30'0 0.0
2014-Oct-14 10:33S 20°08' E 057°30'0 0.0
2014-Oct-14 09:33S 20°08' E 057°30'0 0.0
2014-Oct-14 08:33S 20°08' E 057°30'0 0.0
2014-Oct-14 07:33S 20°08' E 057°30'0 0.0
2014-Oct-14 06:33S 20°08' E 057°30'0 0.0
2014-Oct-14 05:33S 20°08' E 057°30'0 0.0
2014-Oct-14 04:33S 20°08' E 057°30'0 0.0
2014-Oct-14 03:33S 20°08' E 057°30'0 0.0
2014-Oct-14 02:33S 20°08' E 057°30'0 0.0
2014-Oct-14 01:33S 20°08' E 057°30'0 0.0
2014-Oct-14 00:33S 20°08' E 057°30'0 0.0
2014-Oct-13 23:30S 20°08' E 057°30'0 0.0
2014-Oct-13 22:33S 20°08' E 057°30'0 0.2
2014-Oct-13 21:33S 20°08' E 057°29'4 4.2
2014-Oct-13 20:33S 20°07' E 057°25'  
Track history (hours):
 
Tides and Currents Weather Stations Pressure Air Temp Water Temp Dewpoint Dewpoint Depression Visibility Wind Speed Wind Dir Waves Ship Positions

MSC Lara

Last reported at 2014-Oct-21 14:26 UTC. Time now 2014-Oct-22 23:59 UTC.
Position S 20°07' E 057°26'.

Type: Ship (hazmat cat D). MMSI: 355746000.

Date/timePositionNaut miles runAvg speedWind from/ knotsBaromVisibWave heightAir tempDewpointWater temp
2014-Oct-21 14:26S 20°07' E 057°26'4 4.2
2014-Oct-21 13:32S 20°09' E 057°29'0 0.0
2014-Oct-21 12:32S 20°09' E 057°29'0 0.0
2014-Oct-21 11:31S 20°09' E 057°29'0 0.0
2014-Oct-21 10:31S 20°09' E 057°29'0 0.0
2014-Oct-21 09:31S 20°09' E 057°29'0 0.0
2014-Oct-21 08:31S 20°09' E 057°29'0 0.0
2014-Oct-21 07:31S 20°09' E 057°29'0 0.0
2014-Oct-21 06:28S 20°09' E 057°29'0 0.0
2014-Oct-21 05:31S 20°09' E 057°29'0 0.0
2014-Oct-21 04:31S 20°09' E 057°29'0 0.0
2014-Oct-21 03:28S 20°09' E 057°29'0 0.0
2014-Oct-21 02:31S 20°09' E 057°29'0 0.0
2014-Oct-21 01:31S 20°09' E 057°29'0 0.0
2014-Oct-21 00:31S 20°09' E 057°29'0 0.0
2014-Oct-20 23:31S 20°09' E 057°29'0 0.0
2014-Oct-20 22:28S 20°09' E 057°29'0 0.0
2014-Oct-20 21:31S 20°09' E 057°29'0 0.0
2014-Oct-20 20:31S 20°09' E 057°29'0 0.0
2014-Oct-20 19:31S 20°09' E 057°29'0 0.0
2014-Oct-20 18:31S 20°09' E 057°29'0 0.0
2014-Oct-20 17:31S 20°09' E 057°29'0 0.0
2014-Oct-20 16:28S 20°09' E 057°29'0 0.0
2014-Oct-20 15:31S 20°09' E 057°29'0 0.0
2014-Oct-20 14:31S 20°09' E 057°29'0 0.0
2014-Oct-20 13:28S 20°09' E 057°29'0 0.0
2014-Oct-20 12:31S 20°09' E 057°29'0 0.0
2014-Oct-20 11:31S 20°09' E 057°29'0 0.0
2014-Oct-20 10:31S 20°09' E 057°29'0 0.0
2014-Oct-20 09:31S 20°09' E 057°29'0 0.3
2014-Oct-20 08:33S 20°08' E 057°29'3 3.2
2014-Oct-20 07:33S 20°07' E 057°26'2 2.1
2014-Oct-20 06:33S 20°07' E 057°24'3 1.4
2014-Oct-20 04:25S 20°07' E 057°20'1 0.9
2014-Oct-20 03:32S 20°07' E 057°21'1 0.8
2014-Oct-20 02:33S 20°07' E 057°22'3 2.6
2014-Oct-20 01:33S 20°08' E 057°19'  
2014-Oct-15 20:17S 20°07' E 057°26'3 4.4
2014-Oct-15 19:31S 20°08' E 057°30'0 0.0
2014-Oct-15 18:31S 20°08' E 057°30'0 0.0
2014-Oct-15 17:28S 20°08' E 057°30'0 0.0
2014-Oct-15 16:31S 20°08' E 057°30'0 0.0
2014-Oct-15 15:31S 20°08' E 057°30'0 0.0
2014-Oct-15 14:31S 20°08' E 057°30'0 0.0
2014-Oct-15 13:31S 20°08' E 057°30'0 0.0
2014-Oct-15 12:31S 20°08' E 057°30'0 0.0
2014-Oct-15 11:31S 20°08' E 057°30'0 0.0
2014-Oct-15 10:31S 20°08' E 057°30'0 0.0
2014-Oct-15 09:31S 20°08' E 057°30'0 0.0
2014-Oct-15 08:31S 20°08' E 057°30'0 0.0
2014-Oct-15 07:31S 20°08' E 057°30'0 0.0
2014-Oct-15 06:31S 20°08' E 057°30'0 0.0
2014-Oct-15 05:31S 20°08' E 057°30'0 0.0
2014-Oct-15 04:31S 20°08' E 057°30'0 0.0
2014-Oct-15 03:31S 20°08' E 057°30'0 0.0
2014-Oct-15 02:31S 20°08' E 057°30'0 0.0
2014-Oct-15 01:31S 20°08' E 057°30'0 0.0
2014-Oct-15 00:31S 20°08' E 057°30'0 0.0
2014-Oct-14 23:28S 20°08' E 057°30'0 0.0
2014-Oct-14 22:31S 20°08' E 057°30'0 0.0
2014-Oct-14 21:31S 20°08' E 057°30'0 0.0
2014-Oct-14 20:31S 20°08' E 057°30'0 0.0
2014-Oct-14 19:31S 20°08' E 057°30'0 0.0
2014-Oct-14 18:31S 20°08' E 057°30'0 0.0
2014-Oct-14 17:31S 20°08' E 057°30'0 0.0
2014-Oct-14 16:31S 20°08' E 057°30'0 0.0
2014-Oct-14 15:31S 20°08' E 057°30'0 0.0
2014-Oct-14 14:31S 20°08' E 057°30'0 0.0
2014-Oct-14 13:34S 20°08' E 057°30'0 0.0
2014-Oct-14 12:33S 20°08' E 057°30'0 0.0
2014-Oct-14 11:33S 20°08' E 057°30'0 0.0
2014-Oct-14 10:33S 20°08' E 057°30'0 0.0
2014-Oct-14 09:33S 20°08' E 057°30'0 0.0
2014-Oct-14 08:33S 20°08' E 057°30'0 0.0
2014-Oct-14 07:33S 20°08' E 057°30'0 0.0
2014-Oct-14 06:33S 20°08' E 057°30'0 0.0
2014-Oct-14 05:33S 20°08' E 057°30'0 0.0
2014-Oct-14 04:33S 20°08' E 057°30'0 0.0
2014-Oct-14 03:33S 20°08' E 057°30'0 0.0
2014-Oct-14 02:33S 20°08' E 057°30'0 0.0
2014-Oct-14 01:33S 20°08' E 057°30'0 0.0
2014-Oct-14 00:33S 20°08' E 057°30'0 0.0
2014-Oct-13 23:30S 20°08' E 057°30'0 0.0
2014-Oct-13 22:33S 20°08' E 057°30'0 0.2
2014-Oct-13 21:33S 20°08' E 057°29'4 4.2
2014-Oct-13 20:33S 20°07' E 057°25'  

Dump ship's entire track history